Weather History for KEED - October, 2011

Change the Weather History Date:

Sunday, October 16, 2011

  Actual Average Record
Temperature  
Mean Temperature 83 °F -  
Max Temperature 100 °F 86 °F 103 °F (1991)
Min Temperature 66 °F 59 °F 48 °F (1981)
Cooling Degree Days 18    
Growing Degree Days 33 (Base 50)    
Moisture  
Dew Point 33 °F    
Average Humidity 18    
Maximum Humidity 30    
Minimum Humidity 9    
Precipitation  
Precipitation 0.00 in - - ()
Sea Level Pressure  
Sea Level Pressure 29.81 in    
Wind  
Wind Speed 6 mph (WSW)    
Max Wind Speed 14 mph    
Max Gust Speed -    
Visibility 10 miles    
Events      
Averages and records for this station are not official NWS values.
T = Trace of Precipitation, MM = Missing Value Source: NWS Daily Summary

Daily Weather History Graph

Daily Weather History Graph

Search for Another Location

Airport or City:

Trip Planner

Search our weather history database for the weather conditions in past years. The results will help you decide how hot, cold, wet, or windy it might be!

Date:

Astronomy

Oct. 16, 2011 Rise Set
Actual Time 6:44 AM PDT 6:02 PM PDT
Civil Twilight 6:19 AM PDT 6:28 PM PDT
Nautical Twilight 5:50 AM PDT 6:57 PM PDT
Astronomical Twilight 5:20 AM PDT 7:26 PM PDT
Moon 9:02 PM PDT (10/16) 10:55 AM PDT (10/16)
Length of Visible Light 12h 08m
Length of Day
11h 17m
Waning Gibbous, 81% of the Moon is Illuminated
Oct 16
Waning Gibbous
Oct 19
Last Quarter
Oct 26
New
Nov 2
First Quarter
Nov 10
Full

Hourly Weather History & Observations

Time (PDT) Temp. Dew Point Humidity Pressure Visibility Wind Dir Wind Speed Gust Speed Precip Events Conditions
12:56 AM 73.0 °F 33.1 °F 23% 29.78 in 10.0 mi WNW 6.9 mph - N/A   Clear
1:56 AM 73.0 °F 32.0 °F 22% 29.78 in 10.0 mi WNW 9.2 mph - N/A   Clear
3:56 AM 69.1 °F 33.1 °F 26% 29.79 in 10.0 mi West 4.6 mph - N/A   Clear
4:56 AM 68.0 °F 34.0 °F 28% 29.81 in 10.0 mi West 3.5 mph - N/A   Clear
5:56 AM 66.9 °F 33.1 °F 28% 29.82 in 10.0 mi WSW 6.9 mph - N/A   Clear
6:56 AM 66.9 °F 34.0 °F 30% 29.83 in 10.0 mi Calm Calm - N/A   Clear
7:56 AM 73.9 °F 34.0 °F 23% 29.85 in 10.0 mi SSW 4.6 mph - N/A   Clear
8:56 AM 75.0 °F 33.1 °F 22% 29.87 in 10.0 mi SSE 4.6 mph - N/A   Clear
9:56 AM 79.0 °F 33.1 °F 19% 29.87 in 10.0 mi South 3.5 mph - N/A   Clear
10:56 AM 82.0 °F 33.1 °F 17% 29.86 in 10.0 mi Calm Calm - N/A   Clear
11:56 AM 88.0 °F 32.0 °F 14% 29.85 in 10.0 mi Calm Calm - N/A   Clear
12:56 PM 93.0 °F 35.1 °F 13% 29.82 in 10.0 mi East 5.8 mph - N/A   Clear
1:56 PM 98.1 °F 34.0 °F 11% 29.78 in 10.0 mi Variable 4.6 mph - N/A   Clear
2:56 PM 100.0 °F 32.0 °F 9% 29.76 in 10.0 mi SE 8.1 mph - N/A   Clear
4:56 PM 100.0 °F 32.0 °F 9% 29.75 in 10.0 mi West 9.2 mph - N/A   Clear
5:56 PM 96.1 °F 30.9 °F 10% 29.75 in 10.0 mi West 8.1 mph - N/A   Clear
6:56 PM 90.0 °F 33.1 °F 13% 29.77 in 10.0 mi WSW 10.4 mph - N/A   Clear
7:56 PM 90.0 °F 30.9 °F 12% 29.79 in 10.0 mi West 9.2 mph - N/A   Clear
8:56 PM 86.0 °F 30.9 °F 14% 29.81 in 10.0 mi WSW 13.8 mph - N/A   Clear
9:56 PM 82.0 °F 32.0 °F 16% 29.82 in 10.0 mi West 11.5 mph - N/A   Clear
10:56 PM 84.0 °F 33.1 °F 16% 29.83 in 10.0 mi SW 3.5 mph - N/A   Clear
11:56 PM 82.0 °F 34.0 °F 18% 29.83 in 10.0 mi WSW 3.5 mph - N/A   Clear